TimeEDT,TemperatureF,Dew PointF,Humidity,Sea Level PressureIn,VisibilityMPH,Wind Direction,Wind SpeedMPH,Gust SpeedMPH,PrecipitationIn,Events,Conditions,WindDirDegrees,DateUTC
12:53 AM,51.1,46.9,86,30.19,10.0,Calm,Calm,-,N/A,,Clear,0,2013-05-28 04:53:00
1:53 AM,50.0,46.9,89,30.19,10.0,Calm,Calm,-,N/A,,Clear,0,2013-05-28 05:53:00
2:53 AM,48.9,46.9,93,30.19,10.0,Calm,Calm,-,N/A,,Clear,0,2013-05-28 06:53:00
3:53 AM,48.0,46.0,93,30.19,10.0,Calm,Calm,-,N/A,,Clear,0,2013-05-28 07:53:00
4:53 AM,46.9,45.0,93,30.18,10.0,Calm,Calm,-,N/A,,Clear,0,2013-05-28 08:53:00
5:53 AM,46.9,45.0,93,30.19,10.0,Calm,Calm,-,N/A,,Clear,0,2013-05-28 09:53:00
6:53 AM,50.0,46.9,89,30.20,10.0,Calm,Calm,-,N/A,,Clear,0,2013-05-28 10:53:00
7:53 AM,55.0,48.0,77,30.20,10.0,Calm,Calm,-,N/A,,Clear,0,2013-05-28 11:53:00
8:53 AM,59.0,51.1,75,30.21,10.0,Calm,Calm,-,N/A,,Partly Cloudy,0,2013-05-28 12:53:00
9:53 AM,60.1,51.1,72,30.21,10.0,Calm,Calm,-,0.00,Rain,Light Rain,0,2013-05-28 13:53:00
10:53 AM,60.1,51.1,72,30.22,6.0,Calm,Calm,-,0.03,Rain,Light Rain,0,2013-05-28 14:53:00
11:53 AM,59.0,57.0,93,30.21,7.0,Calm,Calm,-,0.03,Rain,Light Rain,0,2013-05-28 15:53:00
12:53 PM,60.1,57.0,90,30.19,6.0,Calm,Calm,-,0.04,Rain,Light Rain,0,2013-05-28 16:53:00
1:53 PM,59.0,57.9,96,30.16,4.0,Calm,Calm,-,0.05,Rain,Light Rain,0,2013-05-28 17:53:00
2:20 PM,59.0,57.2,94,30.16,3.0,Calm,Calm,-,0.02,Rain,Rain,0,2013-05-28 18:20:00
2:31 PM,59.0,55.4,88,30.17,2.5,North,3.5,-,0.05,Rain,Light Rain,350,2013-05-28 18:31:00
2:41 PM,59.0,57.2,94,30.16,2.0,Calm,Calm,-,0.08,Rain,Rain,0,2013-05-28 18:41:00
2:48 PM,59.0,57.2,94,30.16,1.5,Calm,Calm,-,0.11,Rain,Rain,0,2013-05-28 18:48:00
2:53 PM,59.0,57.0,93,30.17,2.5,Calm,Calm,-,0.11,Rain,Light Rain,0,2013-05-28 18:53:00
2:56 PM,59.0,57.2,94,30.16,3.0,NE,3.5,-,0.00,Rain,Light Rain,40,2013-05-28 18:56:00
3:10 PM,57.2,57.2,100,30.16,2.5,Calm,Calm,-,0.02,Rain,Light Rain,0,2013-05-28 19:10:00
3:27 PM,59.0,57.2,94,30.15,4.0,Calm,Calm,-,0.03,Rain,Light Rain,0,2013-05-28 19:27:00
3:53 PM,59.0,57.0,93,30.16,4.0,Calm,Calm,-,0.05,Rain,Light Rain,0,2013-05-28 19:53:00
4:44 PM,57.2,55.4,94,30.15,5.0,ENE,4.6,-,0.04,Rain,Light Rain,60,2013-05-28 20:44:00
4:53 PM,57.9,55.9,93,30.15,5.0,Calm,Calm,-,0.04,Rain,Light Rain,0,2013-05-28 20:53:00
5:40 PM,57.2,55.4,94,30.14,7.0,Calm,Calm,-,0.01,,Overcast,0,2013-05-28 21:40:00
5:53 PM,57.0,55.0,93,30.14,7.0,NE,3.5,-,0.01,,Overcast,40,2013-05-28 21:53:00
6:11 PM,57.2,55.4,94,30.14,5.0,Calm,Calm,-,N/A,,Overcast,0,2013-05-28 22:11:00
6:53 PM,57.9,55.9,93,30.14,4.0,Calm,Calm,-,N/A,,Overcast,0,2013-05-28 22:53:00
7:47 PM,57.2,57.2,100,30.13,2.5,Calm,Calm,-,0.00,,Overcast,0,2013-05-28 23:47:00
7:53 PM,57.9,57.0,97,30.13,2.5,Calm,Calm,-,0.00,,Overcast,0,2013-05-28 23:53:00
8:27 PM,57.2,55.4,94,30.12,3.0,Calm,Calm,-,N/A,,Overcast,0,2013-05-29 00:27:00
8:53 PM,57.9,57.0,97,30.12,2.5,Calm,Calm,-,N/A,,Overcast,0,2013-05-29 00:53:00
9:04 PM,57.2,55.4,94,30.11,3.0,NNE,4.6,-,N/A,,Overcast,20,2013-05-29 01:04:00
9:24 PM,57.2,57.2,100,30.12,2.5,Calm,Calm,-,N/A,,Overcast,0,2013-05-29 01:24:00
9:45 PM,57.2,57.2,100,30.13,3.0,Calm,Calm,-,N/A,,Overcast,0,2013-05-29 01:45:00
9:53 PM,57.9,57.0,97,30.13,3.0,Calm,Calm,-,N/A,,Overcast,0,2013-05-29 01:53:00
10:04 PM,57.2,57.2,100,30.12,2.5,Calm,Calm,-,N/A,,Overcast,0,2013-05-29 02:04:00
10:17 PM,57.2,57.2,100,30.12,2.0,Calm,Calm,-,N/A,,Overcast,0,2013-05-29 02:17:00
10:25 PM,57.2,57.2,100,30.13,1.8,Calm,Calm,-,N/A,,Overcast,0,2013-05-29 02:25:00
10:33 PM,57.2,57.2,100,30.13,2.5,Calm,Calm,-,N/A,,Overcast,0,2013-05-29 02:33:00
10:53 PM,57.9,57.0,97,30.13,2.0,Calm,Calm,-,N/A,,Overcast,0,2013-05-29 02:53:00
11:25 PM,57.2,57.2,100,30.11,1.8,Calm,Calm,-,N/A,,Overcast,0,2013-05-29 03:25:00
11:33 PM,57.2,57.2,100,30.12,3.0,Calm,Calm,-,N/A,,Overcast,0,2013-05-29 03:33:00
11:45 PM,57.2,57.2,100,30.12,2.5,Calm,Calm,-,N/A,,Overcast,0,2013-05-29 03:45:00
11:53 PM,57.9,57.0,97,30.12,2.5,Calm,Calm,-,N/A,,Overcast,0,2013-05-29 03:53:00